Vorticity
6 7 7 8 14 11 8 10 8 6 8 15 9 17 22 12 13 26 23 17 12 9 8 17 15 20 11 2 17 -81 27 14 18 -9 9 4 8 7 9 15 17 7 1 -3
6 7 6 9 10 15 9 9 12 8 11 7 14 10 21 11 13 25 26 25 17 14 7 13 10 21 12 7 3 -28 9 -4 14 4 4 6 20 5 14 8 22 -2 12 5
8 6 7 7 10 12 13 8 10 6 3 5 4 13 13 20 9 19 12 25 30 18 14 8 17 15 15 6 12 5 6 2 -1 6 -2 -9 1 -3 9 19 11 5 9 8
11 6 7 6 8 11 15 8 10 11 11 8 6 8 12 16 15 17 15 35 25 30 13 12 12 13 18 10 26 27 11 -9 10 7 10 2 14 2 -16 17 5 25 -0 6
8 7 6 8 7 10 13 11 10 11 8 7 6 25 16 23 19 16 13 32 22 22 36 17 10 16 15 15 10 3 -5 -6 12 4 4 5 -1 5 -12 4 16 26 16 12
11 10 7 6 6 9 11 12 13 11 7 2 7 29 -4 24 17 18 18 28 26 14 14 31 17 13 11 17 10 4 -1 -31 21 18 3 7 4 -4 24 -14 4 14 31 12
11 11 7 7 7 9 10 9 12 10 8 6 8 7 34 13 17 17 30 35 36 28 38 14 25 9 15 13 11 1 -4 -73 16 10 22 -20 -10 24 3 11 28 10 3 5
13 15 9 7 7 8 8 7 11 7 8 7 6 8 25 13 12 18 9 41 25 19 25 26 19 14 12 10 14 9 11 8 6 -20 -13 8 36 -26 20 31 21 13 37 59
14 12 9 7 8 5 5 9 8 11 11 7 4 5 13 10 12 15 15 11 22 25 27 25 21 10 11 12 9 12 15 3 6 2 4 1 8 -10 4 -11 6 7 -5 13
12 14 11 6 8 7 7 6 7 8 8 10 -9 6 4 23 8 14 20 12 12 12 21 15 7 9 11 11 10 9 11 13 15 15 12 8 -3 24 4 7 2 -4 9 35
9 10 11 9 6 8 6 5 9 9 7 9 18 3 5 18 15 8 21 4 23 20 15 17 9 7 9 11 13 8 7 7 9 15 15 13 16 7 -3 -4 13 12 47 12
9 9 10 11 8 7 7 6 6 8 6 7 13 5 5 14 12 7 6 7 8 12 15 17 11 9 12 11 11 12 8 4 -0 3 4 14 3 1 10 54 15 -8 -4 6
1 4 10 13 9 8 6 8 6 6 6 6 7 8 6 6 17 -6 16 13 7 6 4 3 5 5 15 12 13 19 21 23 1 6 10 -11 13 28 2 19 5 1 1 5
3 6 10 9 11 11 11 6 8 7 7 8 5 7 6 6 5 8 10 15 15 11 12 9 11 8 13 9 14 -2 1 9 43 9 14 35 20 10 5 6 7 7 7 7
10 2 11 19 9 9 12 9 7 8 7 7 8 8 8 5 6 7 5 6 10 16 24 13 12 18 30 21 14 16 9 7 7 9 10 13 4 6 7 7 8 9 9 9
0 7 7 17 10 8 11 11 9 7 9 6 7 8 9 7 6 4 5 6 5 6 7 9 8 9 8 8 7 9 8 8 6 6 5 7 6 6 5 4 7 10 11 8
4 11 3 5 16 8 7 10 12 9 9 8 6 8 7 8 7 6 6 6 4 5 6 6 6 6 7 6 6 5 5 5 6 6 6 7 7 6 10 11 11 12 8 5
7 0 14 -4 15 13 8 9 11 13 12 9 7 9 8 8 7 7 8 6 5 5 5 5 5 5 5 5 6 7 7 8 9 8 7 8 9 11 14 14 14 10 5 4
5 7 7 0 22 14 10 6 6 14 11 13 8 7 9 8 8 6 7 7 7 6 6 5 4 4 5 6 6 7 8 7 9 10 9 11 11 14 16 13 7 5 5 6
3 12 3 6 1 10 14 10 8 2 6 8 10 9 8 9 9 7 6 6 7 7 7 7 7 7 7 7 7 8 9 7 7 7 12 13 15 19 11 7 5 5 6 6
4 4 -1 3 4 8 6 17 8 7 9 9 10 10 9 8 11 10 8 6 6 6 6 7 7 7 7 8 9 9 10 11 12 9 8 18 15 9 7 7 6 7 7 6
-0 3 9 9 5 7 5 11 14 8 4 10 10 8 10 9 7 9 11 9 8 7 6 6 7 7 6 6 7 9 7 7 10 16 8 19 12 7 7 6 7 8 7 8
-3 5 17 7 -3 7 3 7 11 12 8 2 7 8 13 11 11 10 8 11 8 9 9 6 7 7 7 6 6 7 7 7 7 13 13 14 14 7 7 7 7 8 7 6
4 2 20 7 -0 2 5 3 6 7 12 12 6 12 7 9 9 8 10 10 11 8 9 9 7 8 8 8 8 8 8 6 8 6 17 10 16 6 7 8 9 8 6 6
10 13 14 10 3 4 3 6 4 10 2 13 14 4 13 11 8 11 9 9 13 12 9 9 9 6 9 6 8 9 9 8 6 4 18 11 15 7 8 9 8 7 6 6
7 13 13 12 -3 3 3 8 3 4 10 7 18 11 -1 18 11 7 7 8 10 11 12 11 10 11 8 7 6 9 10 10 6 4 15 12 14 9 8 9 8 6 6 5
Height
5789 5785 5780 5776 5772 5766 5762 5757 5752 5748 5744 5740 5736 5732 5727 5723 5719 5715 5714 5715 5715 5716 5721 5728 5735 5742 5750 5751 5756 5746 5746 5768 5777 5783 5789 5792 5796 5800 5802 5804 5807 5809 5811 5813
5788 5784 5780 5775 5770 5765 5760 5755 5751 5746 5742 5737 5732 5728 5722 5716 5711 5706 5704 5703 5705 5707 5713 5719 5727 5734 5740 5740 5750 5738 5755 5756 5772 5778 5782 5786 5790 5794 5796 5799 5801 5802 5803 5805
5785 5783 5779 5774 5769 5763 5758 5754 5750 5746 5740 5736 5729 5722 5715 5708 5702 5699 5696 5696 5695 5698 5702 5708 5719 5727 5732 5734 5750 5749 5724 5760 5766 5766 5775 5778 5782 5785 5789 5791 5794 5794 5796 5798
5784 5781 5777 5773 5767 5763 5758 5753 5748 5744 5739 5734 5728 5724 5714 5706 5700 5694 5690 5686 5685 5687 5693 5700 5710 5719 5727 5732 5735 5742 5749 5755 5759 5759 5766 5772 5775 5779 5782 5782 5783 5786 5788 5790
5783 5778 5774 5771 5767 5763 5758 5752 5748 5743 5738 5733 5726 5720 5712 5704 5698 5690 5683 5680 5680 5681 5685 5694 5703 5713 5722 5729 5733 5736 5733 5720 5749 5755 5761 5765 5770 5774 5776 5778 5778 5777 5780 5782
5780 5776 5773 5770 5766 5762 5757 5752 5747 5743 5737 5732 5726 5719 5710 5702 5694 5687 5680 5673 5672 5676 5681 5689 5699 5709 5720 5725 5728 5725 5729 5738 5739 5748 5756 5761 5765 5768 5770 5771 5771 5770 5771 5771
5778 5775 5772 5768 5766 5761 5755 5752 5748 5742 5738 5734 5726 5716 5709 5701 5695 5686 5678 5670 5667 5671 5678 5686 5695 5707 5717 5722 5723 5723 5729 5733 5736 5741 5746 5751 5757 5761 5762 5763 5763 5761 5762 5763
5776 5774 5772 5768 5765 5761 5756 5752 5746 5742 5739 5734 5726 5719 5712 5704 5697 5689 5681 5675 5671 5672 5677 5686 5695 5705 5714 5720 5723 5724 5727 5738 5742 5743 5747 5750 5752 5752 5754 5753 5753 5754 5753 5754
5775 5773 5770 5767 5764 5760 5756 5751 5747 5744 5739 5733 5726 5722 5714 5707 5701 5695 5690 5685 5681 5680 5682 5688 5698 5707 5715 5722 5725 5725 5730 5735 5739 5740 5743 5745 5744 5746 5748 5748 5749 5747 5747 5747
5775 5772 5770 5766 5762 5759 5755 5751 5749 5743 5739 5733 5729 5725 5718 5712 5706 5701 5696 5692 5690 5690 5693 5697 5703 5709 5715 5721 5725 5728 5729 5733 5737 5739 5740 5742 5741 5743 5743 5744 5743 5744 5744 5743
5774 5771 5770 5765 5761 5757 5755 5751 5748 5745 5741 5737 5732 5729 5722 5716 5711 5707 5704 5701 5698 5696 5698 5703 5709 5713 5717 5721 5725 5728 5730 5732 5734 5737 5738 5739 5740 5740 5739 5739 5738 5738 5738 5741
5773 5769 5766 5764 5760 5757 5753 5750 5747 5744 5742 5738 5734 5731 5726 5720 5715 5712 5710 5709 5707 5705 5706 5708 5713 5716 5718 5722 5724 5727 5729 5731 5733 5733 5735 5735 5735 5736 5735 5733 5734 5733 5734 5736
5771 5768 5764 5762 5761 5756 5753 5750 5747 5744 5741 5739 5737 5734 5729 5725 5721 5717 5715 5714 5713 5713 5712 5713 5715 5716 5719 5721 5723 5726 5728 5729 5730 5731 5731 5731 5732 5731 5729 5729 5729 5730 5731 5731
5768 5765 5763 5760 5757 5755 5752 5749 5746 5743 5742 5738 5737 5735 5732 5728 5725 5722 5719 5717 5717 5716 5716 5717 5717 5717 5717 5719 5721 5724 5725 5723 5724 5727 5727 5726 5725 5725 5726 5726 5727 5727 5727 5726
5765 5763 5760 5757 5755 5752 5750 5747 5745 5742 5741 5739 5736 5734 5733 5730 5727 5725 5723 5721 5720 5719 5719 5719 5719 5719 5719 5719 5721 5721 5722 5721 5722 5723 5721 5723 5722 5722 5723 5722 5723 5723 5722 5722
5762 5760 5757 5754 5752 5750 5747 5745 5743 5741 5739 5738 5736 5734 5732 5731 5729 5727 5725 5724 5722 5722 5722 5722 5722 5721 5721 5721 5721 5721 5721 5721 5722 5721 5720 5720 5720 5719 5719 5718 5717 5717 5716 5716
5758 5757 5754 5752 5749 5747 5746 5743 5741 5739 5737 5736 5735 5733 5731 5730 5729 5728 5726 5724 5723 5723 5723 5722 5722 5722 5722 5721 5720 5720 5720 5720 5720 5719 5718 5718 5717 5715 5714 5713 5712 5713 5711 5711
5753 5752 5750 5749 5746 5744 5742 5739 5738 5737 5736 5734 5732 5732 5730 5728 5727 5726 5726 5725 5723 5721 5721 5721 5720 5720 5719 5719 5719 5718 5717 5716 5715 5714 5713 5712 5711 5710 5709 5708 5708 5708 5707 5705
5747 5747 5745 5744 5743 5741 5738 5736 5734 5733 5733 5731 5729 5728 5728 5727 5725 5724 5723 5723 5722 5721 5720 5718 5717 5717 5716 5716 5715 5714 5714 5713 5711 5710 5707 5706 5705 5703 5703 5702 5702 5701 5699 5697
5741 5741 5740 5739 5738 5736 5735 5732 5730 5729 5729 5727 5726 5725 5724 5724 5723 5722 5719 5719 5719 5718 5717 5716 5716 5715 5713 5712 5711 5710 5709 5708 5707 5706 5704 5702 5700 5698 5698 5698 5696 5694 5693 5690
5733 5734 5734 5731 5731 5732 5730 5728 5726 5726 5727 5723 5722 5722 5720 5719 5719 5719 5717 5715 5714 5714 5714 5714 5712 5711 5710 5709 5708 5706 5705 5703 5701 5700 5699 5697 5695 5694 5693 5692 5691 5689 5687 5684
5725 5726 5727 5725 5724 5726 5725 5723 5722 5721 5718 5717 5717 5716 5715 5714 5713 5713 5713 5712 5710 5709 5709 5708 5708 5707 5706 5705 5704 5702 5700 5699 5697 5695 5694 5692 5691 5689 5688 5686 5685 5682 5680 5677
5717 5719 5720 5720 5719 5715 5714 5717 5717 5715 5713 5712 5711 5710 5710 5708 5706 5706 5706 5707 5705 5704 5703 5703 5702 5701 5701 5700 5699 5698 5696 5695 5692 5690 5688 5686 5685 5684 5682 5679 5677 5675 5672 5668
5708 5709 5710 5713 5713 5708 5705 5706 5710 5710 5707 5707 5706 5704 5703 5702 5701 5699 5699 5699 5699 5698 5697 5696 5696 5695 5695 5694 5693 5692 5691 5689 5687 5684 5682 5680 5678 5677 5675 5673 5671 5668 5664 5659
5695 5701 5704 5707 5705 5701 5698 5697 5698 5701 5701 5701 5700 5698 5697 5696 5695 5693 5691 5691 5691 5691 5690 5689 5689 5688 5688 5687 5686 5685 5684 5683 5681 5679 5676 5674 5671 5670 5668 5667 5664 5660 5655 5650
5687 5694 5694 5699 5695 5693 5692 5689 5688 5689 5692 5693 5693 5691 5690 5689 5688 5687 5685 5684 5683 5683 5683 5683 5681 5680 5680 5680 5679 5678 5677 5676 5675 5673 5671 5668 5665 5664 5662 5659 5656 5652 5648 5643